FW3317 Weather Reports


time (UTC)temp
C
wind
direction
speed
KPH
gust
KPH
rain 1hr
cm
rain 24hr
cm
rain mn
cm
humidity
%
barometer
mb
20260504223011 21 264 1.6 17.7 0.00 0.00 0.00 35 1007.1
20260504221516 21 249 1.6 11.3 0.00 0.00 0.00 37 1007.0
20260504220012 21 216 1.6 11.3 0.00 0.00 0.00 36 1007.0
20260504214513 21 281 6.4 17.7 0.00 0.00 0.00 36 1007.1
20260504213034 21 269 1.6 16.1 0.00 0.00 0.00 36 1007.1
20260504211516 21 263 4.8 12.9 0.00 0.00 0.00 34 1007.1
20260504210015 21 284 3.2 14.5 0.00 0.00 0.00 35 1007.1
20260504204523 21 279 3.2 16.1 0.00 0.00 0.00 35 1007.1
20260504203024 21 221 6.4 19.3 0.00 0.00 0.00 33 1007.1
20260504201533 22 310 4.8 14.5 0.00 0.00 0.00 33 1007.0
20260504200032 22 342 3.2 17.7 0.00 0.00 0.00 32 1007.1
20260504194534 22 346 4.8 17.7 0.00 0.00 0.00 32 1007.2
20260504193037 21 309 3.2 17.7 0.00 0.00 0.00 35 1007.2
20260504191534 21 252 6.4 25.7 0.00 0.00 0.00 33 1007.2
20260504190032 21 309 3.2 14.5 0.00 0.00 0.00 34 1007.3
20260504184518 21 22 4.8 24.1 0.00 0.00 0.00 32 1007.3
20260504183023 21 223 9.7 25.7 0.00 0.00 0.00 31 1007.5
20260504181520 21 301 3.2 16.1 0.00 0.00 0.00 34 1007.7
20260504180022 21 279 6.4 19.3 0.00 0.00 0.00 32 1007.7
20260504174506 20 253 4.8 29.0 0.00 0.00 0.00 34 1007.9
20260504173052 20 233 6.4 24.1 0.00 0.00 0.00 33 1007.8
20260504171549 20 244 4.8 12.9 0.00 0.00 0.00 35 1008.0
20260504081555 5 79 0.0 3.2 0.00 0.00 0.00 80 1011.0
20260504044554 1 79 0.0 0.0 0.00 0.00 0.00 84 1011.0
20260504043040 1 79 0.0 0.0 0.00 0.00 0.00 84 1011.0
20260504041539 1 79 0.0 0.0 0.00 0.00 0.00 84 1010.9
20260504040041 1 79 0.0 0.0 0.00 0.00 0.00 84 1010.8
20260504034544 1 79 0.0 0.0 0.00 0.00 0.00 83 1010.7
20260504033051 2 79 0.0 0.0 0.00 0.00 0.00 83 1010.6
20260504031545 2 79 0.0 0.0 0.00 0.00 0.00 82 1010.6
20260504030047 2 79 0.0 0.0 0.00 0.00 0.00 81 1010.6
20260504024548 2 79 0.0 0.0 0.00 0.00 0.00 80 1010.6
20260504023047 2 79 0.0 0.0 0.00 0.00 0.00 79 1010.6
20260504021535 3 79 0.0 0.0 0.00 0.00 0.00 77 1010.6
20260504020035 3 79 0.0 0.0 0.00 0.00 0.00 77 1010.6
20260504014539 3 84 0.0 0.0 0.00 0.00 0.00 76 1010.4
20260504013042 4 82 0.0 0.0 0.00 0.00 0.00 73 1010.4
20260504011545 5 360 0.0 0.0 0.00 0.00 0.00 72 1010.3
20260504010057 6 80 0.0 0.0 0.00 0.00 0.00 70 1010.1
20260504004555 6 80 0.0 0.0 0.00 0.00 0.00 66 1009.9
20260504003058 7 360 0.0 0.0 0.00 0.00 0.00 63 1009.7
20260504001615 7 360 0.0 3.2 0.00 0.00 0.00 61 1009.6
20260504001502 7 360 0.0 3.2 0.00 0.00 0.00 60 1009.7
20260504000007 8 360 0.0 0.0 0.00 0.00 0.00 53 1009.4
20260503234514 8 360 0.0 1.6 0.00 0.00 0.00 51 1009.2
20260503233057 9 360 0.0 4.8 0.00 0.00 0.00 51 1009.1
20260503231506 9 360 0.0 6.4 0.00 0.00 0.00 48 1009.0
20260503230013 10 360 1.6 6.4 0.00 0.03 0.00 47 1008.9
20260503224556 10 360 1.6 9.7 0.00 0.03 0.00 47 1008.7
20260503224505 10 360 1.6 9.7 0.00 0.03 0.00 46 1008.7